| time (UTC) | temp F | wind direction | speed knots | gust knots | rain 1hr in | rain 24hr in | rain mn in | humidity % | barometer mb |
| 20260508205125 | 81 | 114 | 2.6 | 5.2 | 0.00 | 0.00 | 0.00 | 67 | 1014.8 |
| 20260508204621 | 81 | 80 | 0.0 | 5.2 | 0.00 | 0.00 | 0.00 | 67 | 1014.9 |
| 20260508204118 | 80 | 77 | 3.5 | 6.1 | 0.00 | 0.00 | 0.00 | 67 | 1014.8 |
| 20260508203614 | 83 | 57 | 3.5 | 4.3 | 0.00 | 0.00 | 0.00 | 65 | 1014.5 |
| 20260508203110 | 81 | 66 | 3.5 | 6.1 | 0.00 | 0.00 | 0.00 | 66 | 1014.5 |
| 20260508202606 | 82 | 75 | 2.6 | 4.3 | 0.00 | 0.00 | 0.00 | 66 | 1014.6 |
| 20260508202104 | 81 | 37 | 4.3 | 5.2 | 0.00 | 0.00 | 0.00 | 67 | 1014.6 |
| 20260508201600 | 81 | 92 | 4.3 | 5.2 | 0.00 | 0.00 | 0.00 | 66 | 1014.5 |
| 20260508201057 | 82 | 90 | 1.7 | 5.2 | 0.00 | 0.00 | 0.00 | 66 | 1014.8 |
| 20260508200554 | 82 | 114 | 2.6 | 6.1 | 0.00 | 0.00 | 0.00 | 67 | 1014.9 |
| 20260508200049 | 82 | 116 | 2.6 | 4.3 | 0.00 | 0.00 | 0.00 | 67 | 1015.0 |
| 20260508195547 | 82 | 106 | 3.5 | 5.2 | 0.00 | 0.00 | 0.00 | 66 | 1015.1 |
| 20260508195043 | 80 | 106 | 2.6 | 3.5 | 0.00 | 0.00 | 0.00 | 68 | 1015.3 |
| 20260508194540 | 79 | 80 | 2.6 | 6.1 | 0.00 | 0.00 | 0.00 | 68 | 1015.6 |
| 20260508194037 | 80 | 77 | 1.7 | 2.6 | 0.00 | 0.00 | 0.00 | 68 | 1015.5 |
| 20260508193533 | 81 | 64 | 4.3 | 4.3 | 0.00 | 0.00 | 0.00 | 66 | 1015.9 |
| 20260508193030 | 80 | 59 | 0.0 | 4.3 | 0.00 | 0.00 | 0.00 | 68 | 1015.7 |
| 20260508192527 | 80 | 78 | 4.3 | 5.2 | 0.00 | 0.00 | 0.00 | 68 | 1015.7 |
| 20260508192024 | 79 | 97 | 2.6 | 3.5 | 0.00 | 0.00 | 0.00 | 68 | 1015.7 |
| 20260508191521 | 79 | 90 | 2.6 | 4.3 | 0.00 | 0.00 | 0.00 | 68 | 1016.0 |
| 20260508191017 | 79 | 81 | 2.6 | 3.5 | 0.00 | 0.00 | 0.00 | 68 | 1016.3 |
| 20260508190515 | 78 | 129 | 1.7 | 2.6 | 0.00 | 0.00 | 0.00 | 69 | 1016.1 |
| 20260508190011 | 77 | 87 | 2.6 | 4.3 | 0.00 | 0.00 | 0.00 | 70 | 1016.0 |
| 20260508185509 | 77 | 54 | 3.5 | 3.5 | 0.00 | 0.00 | 0.00 | 70 | 1016.2 |
| 20260508185006 | 77 | 73 | 3.5 | 4.3 | 0.00 | 0.00 | 0.00 | 70 | 1016.0 |
| 20260508184504 | 78 | 74 | 2.6 | 3.5 | 0.00 | 0.00 | 0.00 | 69 | 1016.2 |
| 20260508184000 | 78 | 85 | 1.7 | 4.3 | 0.00 | 0.00 | 0.00 | 69 | 1016.1 |
| 20260508183456 | 78 | 66 | 0.0 | 3.5 | 0.00 | 0.00 | 0.00 | 71 | 1016.2 |
| 20260508182951 | 77 | 64 | 3.5 | 6.1 | 0.00 | 0.00 | 0.00 | 71 | 1016.2 |
| 20260508182449 | 77 | 83 | 0.9 | 4.3 | 0.00 | 0.00 | 0.00 | 71 | 1016.3 |
| 20260508181944 | 77 | 66 | 0.9 | 2.6 | 0.00 | 0.00 | 0.00 | 70 | 1016.3 |
| 20260508181441 | 77 | 77 | 0.9 | 2.6 | 0.00 | 0.00 | 0.00 | 70 | 1016.4 |
| 20260508180938 | 77 | 90 | 0.9 | 3.5 | 0.00 | 0.00 | 0.00 | 69 | 1016.6 |
| 20260508180435 | 77 | 84 | 2.6 | 2.6 | 0.00 | 0.00 | 0.00 | 69 | 1016.5 |
| 20260508175931 | 77 | 105 | 0.9 | 2.6 | 0.00 | 0.00 | 0.00 | 69 | 1016.6 |
| 20260508175427 | 77 | 74 | 1.7 | 3.5 | 0.00 | 0.00 | 0.00 | 69 | 1016.6 |
| 20260508174926 | 78 | 57 | 1.7 | 3.5 | 0.00 | 0.00 | 0.00 | 69 | 1016.5 |
| 20260508174423 | 77 | 55 | 2.6 | 4.3 | 0.00 | 0.00 | 0.00 | 69 | 1016.8 |
| 20260508173919 | 78 | 90 | 2.6 | 2.6 | 0.00 | 0.00 | 0.00 | 69 | 1016.5 |
| 20260508173417 | 78 | 74 | 1.7 | 4.3 | 0.00 | 0.00 | 0.00 | 69 | 1016.5 |
| 20260508172912 | 77 | 85 | 1.7 | 2.6 | 0.00 | 0.00 | 0.00 | 70 | 1016.7 |
| 20260508172410 | 78 | 86 | 1.7 | 3.5 | 0.00 | 0.00 | 0.00 | 71 | 1016.6 |
| 20260508171906 | 77 | 185 | 0.9 | 4.3 | 0.00 | 0.00 | 0.00 | 71 | 1016.7 |
| 20260508171402 | 77 | 100 | 3.5 | 4.3 | 0.00 | 0.00 | 0.00 | 70 | 1016.7 |
| 20260508170859 | 77 | 90 | 0.0 | 2.6 | 0.00 | 0.00 | 0.00 | 71 | 1016.8 |
| 20260508170357 | 77 | 57 | 4.3 | 4.3 | 0.00 | 0.00 | 0.00 | 69 | 1016.9 |
| 20260508165853 | 77 | 90 | 0.9 | 3.5 | 0.00 | 0.00 | 0.00 | 70 | 1017.0 |
| 20260508165351 | 77 | 72 | 1.7 | 4.3 | 0.00 | 0.00 | 0.00 | 69 | 1017.1 |
| 20260508164846 | 77 | 105 | 2.6 | 3.5 | 0.00 | 0.00 | 0.00 | 70 | 1017.2 |
| 20260508164344 | 77 | 75 | 2.6 | 3.5 | 0.00 | 0.00 | 0.00 | 70 | 1017.0 |
| 20260508163841 | 76 | 90 | 0.9 | 3.5 | 0.00 | 0.00 | 0.00 | 70 | 1017.2 |
| 20260508163339 | 76 | 82 | 1.7 | 3.5 | 0.00 | 0.00 | 0.00 | 72 | 1017.1 |
| 20260508162835 | 76 | 75 | 1.7 | 2.6 | 0.00 | 0.00 | 0.00 | 71 | 1017.5 |
| 20260508162332 | 75 | 120 | 0.0 | 4.3 | 0.00 | 0.00 | 0.00 | 72 | 1017.3 |
| 20260508161829 | 75 | 90 | 0.0 | 1.7 | 0.00 | 0.00 | 0.00 | 73 | 1017.4 |
| 20260508161326 | 74 | 78 | 1.7 | 2.6 | 0.00 | 0.00 | 0.00 | 72 | 1017.7 |
| 20260508160823 | 74 | 83 | 0.9 | 2.6 | 0.00 | 0.00 | 0.00 | 71 | 1018.0 |
| 20260508160322 | 74 | 82 | 0.9 | 1.7 | 0.00 | 0.00 | 0.00 | 71 | 1017.7 |
| 20260508155818 | 75 | 71 | 1.7 | 3.5 | 0.00 | 0.00 | 0.00 | 71 | 1017.7 |
| 20260508155315 | 76 | 82 | 2.6 | 3.5 | 0.00 | 0.00 | 0.00 | 71 | 1017.8 |
| 20260508154812 | 76 | 105 | 0.9 | 2.6 | 0.00 | 0.00 | 0.00 | 71 | 1017.5 |
| 20260508154310 | 75 | 90 | 0.9 | 3.5 | 0.00 | 0.00 | 0.00 | 70 | 1017.6 |
| 20260508153806 | 75 | 75 | 1.7 | 2.6 | 0.00 | 0.00 | 0.00 | 71 | 1017.8 |
| 20260508153303 | 75 | 70 | 1.7 | 2.6 | 0.00 | 0.00 | 0.00 | 71 | 1017.7 |
| 20260508152759 | 75 | 106 | 0.0 | 2.6 | 0.00 | 0.00 | 0.00 | 72 | 1017.9 |
| 20260508152256 | 76 | 107 | 1.7 | 3.5 | 0.00 | 0.00 | 0.00 | 73 | 1017.5 |
| 20260508151752 | 75 | 79 | 2.6 | 4.3 | 0.00 | 0.00 | 0.00 | 73 | 1017.8 |
| 20260508151249 | 75 | 82 | 2.6 | 2.6 | 0.00 | 0.00 | 0.00 | 73 | 1017.6 |
| 20260508150745 | 75 | 234 | 0.0 | 2.6 | 0.00 | 0.00 | 0.00 | 74 | 1017.6 |
| 20260508150242 | 75 | 74 | 1.7 | 3.5 | 0.00 | 0.00 | 0.00 | 73 | 1017.7 |
| 20260508145738 | 75 | 80 | 1.7 | 2.6 | 0.00 | 0.00 | 0.00 | 73 | 1017.5 |
| 20260508145235 | 75 | 90 | 0.9 | 3.5 | 0.00 | 0.00 | 0.00 | 73 | 1017.7 |
| 20260508144731 | 75 | 77 | 1.7 | 5.2 | 0.00 | 0.00 | 0.00 | 73 | 1017.8 |
| 20260508144230 | 75 | 58 | 2.6 | 3.5 | 0.00 | 0.00 | 0.00 | 71 | 1017.9 |
| 20260508143727 | 75 | 81 | 0.0 | 3.5 | 0.00 | 0.00 | 0.00 | 71 | 1017.5 |
| 20260508143224 | 76 | 90 | 0.9 | 3.5 | 0.00 | 0.00 | 0.00 | 72 | 1017.3 |
| 20260508142720 | 75 | 48 | 1.7 | 3.5 | 0.00 | 0.00 | 0.00 | 71 | 1017.4 |
| 20260508142217 | 76 | 78 | 2.6 | 2.6 | 0.00 | 0.00 | 0.00 | 71 | 1017.3 |
| 20260508141713 | 76 | 110 | 2.6 | 4.3 | 0.00 | 0.00 | 0.00 | 71 | 1017.6 |
| 20260508141211 | 76 | 127 | 0.0 | 2.6 | 0.00 | 0.00 | 0.00 | 72 | 1017.3 |
| 20260508140708 | 75 | 105 | 2.6 | 2.6 | 0.00 | 0.00 | 0.00 | 72 | 1017.3 |
| 20260508140205 | 74 | 126 | 0.9 | 4.3 | 0.00 | 0.00 | 0.00 | 73 | 1017.3 |
| 20260508135701 | 73 | 117 | 1.7 | 3.5 | 0.00 | 0.00 | 0.00 | 73 | 1017.4 |
| 20260508135156 | 73 | 99 | 0.0 | 2.6 | 0.00 | 0.00 | 0.00 | 74 | 1017.3 |
| 20260508134653 | 73 | 51 | 2.6 | 2.6 | 0.00 | 0.00 | 0.00 | 76 | 1017.6 |
| 20260508134150 | 73 | 51 | 2.6 | 2.6 | 0.00 | 0.00 | 0.00 | 77 | 1017.4 |
| 20260508133647 | 73 | 75 | 2.6 | 2.6 | 0.00 | 0.00 | 0.00 | 78 | 1017.4 |
| 20260508133144 | 73 | 69 | 0.0 | 5.2 | 0.00 | 0.00 | 0.00 | 78 | 1017.6 |
| 20260508132642 | 73 | 60 | 2.6 | 3.5 | 0.00 | 0.00 | 0.00 | 80 | 1017.2 |
| 20260508132138 | 73 | 81 | 0.0 | 1.7 | 0.00 | 0.00 | 0.00 | 81 | 1017.0 |
| 20260508131634 | 73 | 90 | 0.0 | 1.7 | 0.00 | 0.00 | 0.00 | 82 | 1017.1 |
| 20260508131131 | 73 | 82 | 0.0 | 1.7 | 0.00 | 0.00 | 0.00 | 82 | 1017.2 |
| 20260508130627 | 73 | 106 | 0.9 | 2.6 | 0.00 | 0.00 | 0.00 | 82 | 1017.2 |
| 20260508130124 | 73 | 78 | 1.7 | 3.5 | 0.00 | 0.00 | 0.00 | 82 | 1017.1 |
| 20260508125620 | 73 | 68 | 2.6 | 6.1 | 0.00 | 0.00 | 0.00 | 83 | 1017.0 |
| 20260508125118 | 73 | 85 | 1.7 | 3.5 | 0.00 | 0.00 | 0.00 | 84 | 1017.1 |
| 20260508124615 | 73 | 85 | 1.7 | 5.2 | 0.00 | 0.00 | 0.00 | 84 | 1017.1 |
| 20260508124112 | 73 | 127 | 1.7 | 3.5 | 0.00 | 0.00 | 0.00 | 85 | 1016.8 |
| 20260508123610 | 73 | 77 | 0.9 | 3.5 | 0.00 | 0.00 | 0.00 | 86 | 1017.1 |
| 20260508123107 | 73 | 83 | 0.9 | 2.6 | 0.00 | 0.00 | 0.00 | 86 | 1017.0 |
| 20260508122603 | 75 | 81 | 0.0 | 1.7 | 0.00 | 0.00 | 0.00 | 87 | 1016.7 |
| 20260508122101 | 75 | 90 | 0.9 | 0.9 | 0.00 | 0.00 | 0.00 | 87 | 1016.7 |
| 20260508121559 | 75 | 90 | 0.9 | 3.5 | 0.00 | 0.00 | 0.00 | 87 | 1016.9 |
| 20260508121057 | 75 | 45 | 1.7 | 2.6 | 0.00 | 0.00 | 0.00 | 87 | 1016.6 |
| 20260508120554 | 75 | 60 | 0.9 | 1.7 | 0.00 | 0.00 | 0.00 | 87 | 1016.5 |
| 20260508120052 | 75 | 66 | 0.0 | 0.0 | 0.00 | 0.00 | 0.00 | 88 | 1016.5 |
| 20260508115549 | 75 | 90 | 0.0 | 1.7 | 0.00 | 0.00 | 0.00 | 88 | 1016.6 |
| 20260508115046 | 75 | 81 | 0.0 | 2.6 | 0.00 | 0.00 | 0.00 | 88 | 1016.2 |
| 20260508114543 | 75 | 8 | 0.0 | 1.7 | 0.00 | 0.00 | 0.00 | 88 | 1016.2 |
| 20260508114039 | 75 | 14 | 0.0 | 2.6 | 0.00 | 0.00 | 0.00 | 88 | 1016.1 |
| 20260508113537 | 75 | 21 | 0.0 | 2.6 | 0.00 | 0.00 | 0.00 | 88 | 1016.1 |
| 20260508113035 | 75 | 63 | 0.0 | 1.7 | 0.00 | 0.00 | 0.00 | 88 | 1015.9 |
| 20260508112531 | 75 | 337 | 0.9 | 0.9 | 0.00 | 0.00 | 0.00 | 88 | 1015.8 |
| 20260508112028 | 75 | 71 | 0.9 | 2.6 | 0.00 | 0.00 | 0.00 | 88 | 1015.8 |
| 20260508111525 | 75 | 0 | 0.0 | 1.7 | 0.00 | 0.00 | 0.00 | 89 | 1015.7 |
| 20260508111021 | 75 | 68 | 0.0 | 2.6 | 0.00 | 0.00 | 0.00 | 88 | 1015.6 |
| 20260508110520 | 75 | 0 | 0.0 | 1.7 | 0.00 | 0.00 | 0.00 | 89 | 1015.8 |
| 20260508110015 | 75 | 35 | 0.0 | 2.6 | 0.00 | 0.00 | 0.00 | 89 | 1015.6 |
| 20260508105510 | 75 | 15 | 0.0 | 2.6 | 0.00 | 0.00 | 0.00 | 89 | 1015.4 |
| 20260508105008 | 75 | 57 | 0.0 | 1.7 | 0.00 | 0.00 | 0.00 | 89 | 1015.1 |
| 20260508104506 | 75 | 57 | 1.7 | 1.7 | 0.00 | 0.00 | 0.00 | 90 | 1014.7 |
| 20260508104002 | 75 | 352 | 0.0 | 0.0 | 0.00 | 0.00 | 0.00 | 90 | 1014.8 |
| 20260508103459 | 75 | 12 | 0.9 | 1.7 | 0.00 | 0.00 | 0.00 | 90 | 1015.1 |
| 20260508102955 | 75 | 0 | 0.0 | 1.7 | 0.00 | 0.00 | 0.00 | 90 | 1015.0 |
| 20260508102454 | 75 | 254 | 0.0 | 0.0 | 0.00 | 0.00 | 0.00 | 90 | 1014.8 |
| 20260508101951 | 75 | 35 | 0.9 | 1.7 | 0.00 | 0.00 | 0.00 | 90 | 1014.9 |
| 20260508101448 | 75 | 349 | 1.7 | 1.7 | 0.00 | 0.00 | 0.00 | 90 | 1014.7 |
| 20260508100945 | 75 | 23 | 0.0 | 0.9 | 0.00 | 0.00 | 0.00 | 90 | 1014.4 |
| 20260508100444 | 75 | 90 | 0.0 | 1.7 | 0.00 | 0.00 | 0.00 | 90 | 1014.8 |
| 20260508095939 | 75 | 8 | 0.0 | 0.9 | 0.00 | 0.00 | 0.00 | 90 | 1014.9 |
| 20260508095438 | 75 | 26 | 0.0 | 1.7 | 0.00 | 0.00 | 0.00 | 90 | 1014.6 |
| 20260508094934 | 75 | 81 | 0.0 | 0.0 | 0.00 | 0.00 | 0.00 | 89 | 1014.4 |
| 20260508094431 | 75 | 0 | 0.0 | 0.0 | 0.00 | 0.00 | 0.00 | 89 | 1014.3 |
| 20260508093928 | 75 | 0 | 0.0 | 0.0 | 0.00 | 0.00 | 0.00 | 89 | 1014.2 |
| 20260508093425 | 75 | 352 | 0.0 | 0.0 | 0.00 | 0.00 | 0.00 | 89 | 1014.2 |
| 20260508092923 | 75 | 15 | 0.0 | 0.0 | 0.00 | 0.00 | 0.00 | 89 | 1014.5 |
| 20260508092421 | 76 | 279 | 0.0 | 0.0 | 0.00 | 0.00 | 0.00 | 89 | 1014.5 |
| 20260508091919 | 76 | 74 | 0.0 | 0.0 | 0.00 | 0.00 | 0.00 | 89 | 1014.4 |
| 20260508091415 | 76 | 15 | 0.0 | 1.7 | 0.00 | 0.00 | 0.00 | 88 | 1014.4 |
| 20260508090912 | 76 | 0 | 0.0 | 2.6 | 0.00 | 0.00 | 0.00 | 88 | 1014.3 |
| 20260508090411 | 76 | 334 | 0.9 | 2.6 | 0.00 | 0.00 | 0.00 | 88 | 1014.1 |
| 20260508085911 | 76 | 26 | 0.0 | 1.7 | 0.00 | 0.00 | 0.00 | 88 | 1014.1 |
| 20260508085409 | 76 | 0 | 0.0 | 0.9 | 0.00 | 0.00 | 0.00 | 88 | 1014.0 |
| 20260508084905 | 76 | 36 | 1.7 | 2.6 | 0.00 | 0.00 | 0.00 | 88 | 1014.0 |
| 20260508084402 | 76 | 0 | 0.0 | 1.7 | 0.00 | 0.00 | 0.00 | 87 | 1014.5 |
| 20260508083900 | 76 | 0 | 0.0 | 1.7 | 0.00 | 0.00 | 0.00 | 87 | 1014.3 |
| 20260508083357 | 76 | 270 | 0.0 | 2.6 | 0.00 | 0.00 | 0.00 | 87 | 1014.4 |
| 20260508082856 | 76 | 352 | 0.0 | 1.7 | 0.00 | 0.00 | 0.00 | 87 | 1014.1 |
| 20260508082354 | 76 | 8 | 0.0 | 0.0 | 0.00 | 0.00 | 0.00 | 87 | 1014.1 |
| 20260508081852 | 76 | 324 | 0.0 | 1.7 | 0.00 | 0.00 | 0.00 | 87 | 1014.2 |
| 20260508081348 | 76 | 292 | 0.0 | 1.7 | 0.00 | 0.00 | 0.00 | 87 | 1014.4 |
| 20260508080846 | 76 | 0 | 0.0 | 0.0 | 0.00 | 0.00 | 0.00 | 87 | 1014.3 |
| 20260508080343 | 76 | 26 | 0.0 | 0.9 | 0.00 | 0.00 | 0.00 | 86 | 1014.3 |
| 20260508075840 | 76 | 342 | 0.0 | 1.7 | 0.00 | 0.00 | 0.00 | 86 | 1014.4 |
| 20260508075337 | 76 | 270 | 0.0 | 1.7 | 0.00 | 0.00 | 0.00 | 86 | 1014.3 |
| 20260508074835 | 76 | 14 | 0.0 | 1.7 | 0.00 | 0.00 | 0.00 | 86 | 1014.1 |
| 20260508074331 | 76 | 312 | 0.0 | 1.7 | 0.00 | 0.00 | 0.00 | 86 | 1014.4 |
| 20260508073828 | 76 | 7 | 0.9 | 3.5 | 0.00 | 0.00 | 0.00 | 86 | 1014.5 |
| 20260508073326 | 77 | 7 | 0.9 | 2.6 | 0.00 | 0.00 | 0.00 | 86 | 1014.4 |
| 20260508072822 | 77 | 340 | 0.9 | 3.5 | 0.00 | 0.00 | 0.00 | 86 | 1014.4 |
| 20260508072319 | 76 | 285 | 0.0 | 1.7 | 0.00 | 0.00 | 0.00 | 86 | 1014.4 |
| 20260508071816 | 77 | 339 | 1.7 | 1.7 | 0.00 | 0.00 | 0.00 | 86 | 1014.5 |
| 20260508071315 | 77 | 34 | 1.7 | 1.7 | 0.00 | 0.00 | 0.00 | 85 | 1014.4 |
| 20260508070812 | 77 | 66 | 0.9 | 1.7 | 0.00 | 0.00 | 0.00 | 85 | 1014.7 |
| 20260508070310 | 77 | 286 | 0.0 | 1.7 | 0.00 | 0.00 | 0.00 | 85 | 1014.5 |
| 20260508065807 | 77 | 0 | 0.0 | 3.5 | 0.00 | 0.00 | 0.00 | 85 | 1014.8 |
| 20260508065307 | 77 | 308 | 1.7 | 2.6 | 0.00 | 0.00 | 0.00 | 85 | 1014.9 |
| 20260508064803 | 77 | 303 | 1.7 | 1.7 | 0.00 | 0.00 | 0.00 | 85 | 1014.8 |
| 20260508064300 | 77 | 20 | 0.0 | 1.7 | 0.00 | 0.00 | 0.00 | 85 | 1014.7 |
| 20260508063757 | 77 | 346 | 0.9 | 1.7 | 0.00 | 0.00 | 0.00 | 85 | 1015.0 |
| 20260508063256 | 77 | 109 | 0.0 | 2.6 | 0.00 | 0.00 | 0.00 | 85 | 1014.9 |
| 20260508062752 | 77 | 331 | 0.0 | 3.5 | 0.00 | 0.00 | 0.00 | 85 | 1014.9 |
| 20260508062250 | 77 | 294 | 0.0 | 2.6 | 0.00 | 0.00 | 0.00 | 85 | 1014.7 |
| 20260508061747 | 77 | 340 | 0.0 | 1.7 | 0.00 | 0.00 | 0.00 | 84 | 1015.0 |
| 20260508061244 | 77 | 160 | 0.0 | 1.7 | 0.00 | 0.00 | 0.00 | 84 | 1014.9 |
| 20260508060740 | 77 | 344 | 1.7 | 2.6 | 0.00 | 0.00 | 0.00 | 84 | 1014.9 |
| 20260508060239 | 77 | 292 | 2.6 | 2.6 | 0.00 | 0.00 | 0.00 | 84 | 1015.0 |
| 20260508055733 | 77 | 26 | 2.6 | 2.6 | 0.00 | 0.00 | 0.00 | 84 | 1014.8 |
| 20260508055231 | 77 | 331 | 1.7 | 2.6 | 0.00 | 0.00 | 0.00 | 84 | 1015.1 |
| 20260508054727 | 77 | 90 | 0.9 | 1.7 | 0.00 | 0.00 | 0.00 | 83 | 1015.0 |
| 20260508054226 | 77 | 351 | 1.7 | 1.7 | 0.00 | 0.00 | 0.00 | 83 | 1015.1 |
| 20260508053722 | 77 | 246 | 0.0 | 2.6 | 0.00 | 0.00 | 0.00 | 83 | 1015.1 |
| 20260508053220 | 77 | 74 | 0.0 | 0.9 | 0.00 | 0.00 | 0.00 | 83 | 1015.2 |
| 20260508052717 | 77 | 75 | 0.9 | 2.6 | 0.00 | 0.00 | 0.00 | 83 | 1015.1 |
| 20260508052214 | 77 | 49 | 0.0 | 1.7 | 0.00 | 0.00 | 0.00 | 83 | 1015.0 |
| 20260508051710 | 77 | 90 | 0.0 | 0.0 | 0.00 | 0.00 | 0.00 | 83 | 1015.0 |
| 20260508051205 | 77 | 106 | 0.0 | 0.9 | 0.00 | 0.00 | 0.00 | 82 | 1014.8 |
| 20260508050702 | 77 | 90 | 0.0 | 0.9 | 0.00 | 0.00 | 0.00 | 82 | 1015.1 |
| 20260508050200 | 77 | 172 | 1.7 | 2.6 | 0.00 | 0.00 | 0.00 | 82 | 1015.1 |
| 20260508045654 | 77 | 354 | 0.0 | 1.7 | 0.00 | 0.00 | 0.00 | 82 | 1015.1 |
| 20260508045153 | 77 | 66 | 0.0 | 1.7 | 0.00 | 0.00 | 0.00 | 82 | 1015.2 |
| 20260508044650 | 78 | 327 | 2.6 | 3.5 | 0.00 | 0.00 | 0.00 | 82 | 1015.1 |
| 20260508044146 | 78 | 55 | 1.7 | 2.6 | 0.00 | 0.00 | 0.00 | 81 | 1015.3 |
| 20260508043642 | 78 | 55 | 0.0 | 0.0 | 0.00 | 0.00 | 0.00 | 81 | 1014.9 |
| 20260508043140 | 78 | 79 | 1.7 | 2.6 | 0.00 | 0.00 | 0.00 | 81 | 1015.0 |
| 20260508042637 | 78 | 12 | 0.0 | 1.7 | 0.00 | 0.00 | 0.00 | 80 | 1015.0 |
| 20260508042134 | 78 | 299 | 2.6 | 5.2 | 0.00 | 0.00 | 0.00 | 80 | 1015.0 |
| 20260508041630 | 78 | 297 | 0.9 | 3.5 | 0.00 | 0.00 | 0.00 | 80 | 1014.9 |
| 20260508041127 | 78 | 338 | 0.0 | 4.3 | 0.00 | 0.00 | 0.00 | 80 | 1015.1 |
| 20260508040623 | 78 | 325 | 3.5 | 3.5 | 0.00 | 0.00 | 0.00 | 80 | 1015.0 |
| 20260508040121 | 78 | 173 | 0.0 | 3.5 | 0.00 | 0.00 | 0.00 | 79 | 1015.0 |
| 20260508035618 | 79 | 26 | 0.9 | 3.5 | 0.00 | 0.00 | 0.00 | 79 | 1014.9 |
| 20260508035115 | 79 | 173 | 1.7 | 2.6 | 0.00 | 0.00 | 0.00 | 79 | 1014.9 |
| 20260508034612 | 79 | 312 | 1.7 | 3.5 | 0.00 | 0.00 | 0.00 | 78 | 1015.0 |
| 20260508034109 | 79 | 300 | 0.0 | 7.8 | 0.00 | 0.00 | 0.00 | 78 | 1014.9 |
| 20260508033607 | 79 | 342 | 0.0 | 5.2 | 0.00 | 0.00 | 0.00 | 77 | 1014.8 |
| 20260508033105 | 79 | 37 | 1.7 | 1.7 | 0.00 | 0.00 | 0.00 | 77 | 1015.1 |
| 20260508032601 | 80 | 11 | 0.0 | 3.5 | 0.00 | 0.00 | 0.00 | 76 | 1014.9 |
| 20260508032059 | 80 | 282 | 0.0 | 3.5 | 0.00 | 0.00 | 0.00 | 76 | 1014.7 |
| 20260508031556 | 80 | 243 | 0.0 | 5.2 | 0.00 | 0.00 | 0.00 | 75 | 1014.9 |
| 20260508031051 | 80 | 29 | 1.7 | 1.7 | 0.00 | 0.00 | 0.00 | 75 | 1014.7 |
| 20260508030548 | 80 | 337 | 2.6 | 2.6 | 0.00 | 0.00 | 0.00 | 74 | 1014.7 |
| 20260508030046 | 80 | 307 | 0.0 | 3.5 | 0.00 | 0.00 | 0.00 | 74 | 1014.4 |
| 20260508025542 | 80 | 60 | 0.0 | 2.6 | 0.00 | 0.00 | 0.00 | 74 | 1014.6 |
| 20260508025039 | 80 | 304 | 0.0 | 5.2 | 0.00 | 0.00 | 0.00 | 74 | 1014.3 |
| 20260508024535 | 81 | 169 | 0.0 | 3.5 | 0.00 | 0.00 | 0.00 | 74 | 1014.4 |
| 20260508024032 | 81 | 331 | 0.9 | 2.6 | 0.00 | 0.00 | 0.00 | 74 | 1014.4 |
| 20260508023529 | 81 | 357 | 2.6 | 2.6 | 0.00 | 0.00 | 0.00 | 73 | 1014.4 |
| 20260508023026 | 81 | 290 | 1.7 | 5.2 | 0.00 | 0.00 | 0.00 | 73 | 1014.7 |
| 20260508022522 | 81 | 8 | 1.7 | 5.2 | 0.00 | 0.00 | 0.00 | 72 | 1014.4 |
| 20260508022019 | 81 | 0 | 0.0 | 1.7 | 0.00 | 0.00 | 0.00 | 72 | 1014.5 |
| 20260508021515 | 81 | 7 | 0.9 | 3.5 | 0.00 | 0.00 | 0.00 | 71 | 1014.5 |
| 20260508021011 | 82 | 33 | 2.6 | 5.2 | 0.00 | 0.00 | 0.00 | 71 | 1014.5 |
| 20260508020509 | 82 | 74 | 0.9 | 3.5 | 0.00 | 0.00 | 0.00 | 70 | 1014.4 |
| 20260508020006 | 82 | 319 | 1.7 | 5.2 | 0.00 | 0.00 | 0.00 | 70 | 1014.1 |
| 20260508015504 | 82 | 337 | 0.0 | 2.6 | 0.00 | 0.00 | 0.00 | 69 | 1014.3 |
| 20260508015000 | 82 | 23 | 0.0 | 2.6 | 0.00 | 0.00 | 0.00 | 68 | 1014.2 |
| 20260508014457 | 82 | 303 | 6.1 | 6.1 | 0.00 | 0.00 | 0.00 | 68 | 1014.0 |
| 20260508013953 | 83 | 345 | 1.7 | 4.3 | 0.00 | 0.00 | 0.00 | 67 | 1014.2 |
| 20260508013449 | 83 | 323 | 5.2 | 5.2 | 0.00 | 0.00 | 0.00 | 66 | 1014.2 |
| 20260508012947 | 83 | 332 | 2.6 | 2.6 | 0.00 | 0.00 | 0.00 | 66 | 1014.1 |
| 20260508012443 | 83 | 335 | 2.6 | 4.3 | 0.00 | 0.00 | 0.00 | 65 | 1014.0 |
| 20260508011941 | 83 | 345 | 0.0 | 2.6 | 0.00 | 0.00 | 0.00 | 65 | 1014.0 |
| 20260508011438 | 83 | 349 | 1.7 | 3.5 | 0.00 | 0.00 | 0.00 | 65 | 1013.8 |
| 20260508010936 | 83 | 341 | 2.6 | 2.6 | 0.00 | 0.00 | 0.00 | 64 | 1013.8 |
| 20260508010433 | 83 | 90 | 0.0 | 0.9 | 0.00 | 0.00 | 0.00 | 64 | 1013.4 |
| 20260508005930 | 84 | 180 | 0.0 | 1.7 | 0.00 | 0.00 | 0.00 | 64 | 1013.2 |
| 20260508005427 | 84 | 351 | 1.7 | 2.6 | 0.00 | 0.00 | 0.00 | 63 | 1013.6 |
| 20260508004923 | 84 | 23 | 0.0 | 1.7 | 0.00 | 0.00 | 0.00 | 62 | 1013.3 |
| 20260508004419 | 84 | 334 | 0.0 | 2.6 | 0.00 | 0.00 | 0.00 | 62 | 1013.3 |
| 20260508003916 | 85 | 105 | 0.9 | 1.7 | 0.00 | 0.00 | 0.00 | 61 | 1013.2 |
| 20260508003413 | 85 | 353 | 1.7 | 2.6 | 0.00 | 0.00 | 0.00 | 60 | 1013.4 |
| 20260508002910 | 85 | 53 | 0.0 | 2.6 | 0.00 | 0.00 | 0.00 | 60 | 1013.1 |
| 20260508002407 | 85 | 334 | 1.7 | 4.3 | 0.00 | 0.00 | 0.00 | 60 | 1013.2 |
| 20260508001903 | 85 | 198 | 1.7 | 2.6 | 0.00 | 0.00 | 0.00 | 59 | 1013.1 |
| 20260508001359 | 85 | 85 | 0.0 | 1.7 | 0.00 | 0.00 | 0.00 | 58 | 1013.1 |
| 20260508000856 | 86 | 19 | 0.0 | 3.5 | 0.00 | 0.00 | 0.00 | 58 | 1013.3 |
| 20260508000352 | 86 | 125 | 1.7 | 1.7 | 0.00 | 0.00 | 0.00 | 58 | 1013.2 |
| 20260507235848 | 86 | 251 | 0.0 | 3.5 | 0.00 | 0.00 | 0.00 | 57 | 1013.2 |
| 20260507235346 | 86 | 71 | 0.0 | 2.6 | 0.00 | 0.00 | 0.00 | 57 | 1013.6 |
| 20260507234843 | 86 | 38 | 0.0 | 2.6 | 0.00 | 0.00 | 0.00 | 56 | 1013.2 |
| 20260507234339 | 86 | 45 | 0.0 | 2.6 | 0.00 | 0.00 | 0.00 | 56 | 1013.2 |
| 20260507233836 | 87 | 321 | 2.6 | 3.5 | 0.00 | 0.00 | 0.00 | 56 | 1013.2 |
| 20260507233334 | 87 | 323 | 2.6 | 3.5 | 0.00 | 0.00 | 0.00 | 56 | 1013.1 |
| 20260507232832 | 87 | 354 | 2.6 | 2.6 | 0.00 | 0.00 | 0.00 | 55 | 1013.1 |
| 20260507232328 | 87 | 151 | 2.6 | 2.6 | 0.00 | 0.00 | 0.00 | 54 | 1012.8 |
| 20260507231825 | 87 | 330 | 1.7 | 6.1 | 0.00 | 0.00 | 0.00 | 54 | 1013.0 |
| 20260507231322 | 87 | 0 | 1.7 | 3.5 | 0.00 | 0.00 | 0.00 | 53 | 1013.0 |
| 20260507230818 | 87 | 23 | 2.6 | 2.6 | 0.00 | 0.00 | 0.00 | 53 | 1013.1 |
| 20260507230316 | 87 | 358 | 3.5 | 4.3 | 0.00 | 0.00 | 0.00 | 52 | 1012.9 |
| 20260507225815 | 87 | 106 | 0.0 | 3.5 | 0.00 | 0.00 | 0.00 | 53 | 1012.7 |
| 20260507225312 | 87 | 132 | 1.7 | 3.5 | 0.00 | 0.00 | 0.00 | 52 | 1012.7 |
| 20260507224808 | 87 | 150 | 1.7 | 4.3 | 0.00 | 0.00 | 0.00 | 51 | 1012.6 |
| 20260507224305 | 88 | 62 | 3.5 | 6.1 | 0.00 | 0.00 | 0.00 | 51 | 1012.5 |
| 20260507223801 | 88 | 90 | 0.0 | 5.2 | 0.00 | 0.00 | 0.00 | 51 | 1012.6 |
| 20260507223257 | 88 | 100 | 3.5 | 4.3 | 0.00 | 0.00 | 0.00 | 51 | 1012.6 |
| 20260507222754 | 89 | 206 | 1.7 | 5.2 | 0.00 | 0.00 | 0.00 | 52 | 1012.6 |
| 20260507222250 | 89 | 90 | 0.9 | 4.3 | 0.00 | 0.00 | 0.00 | 52 | 1012.6 |
| 20260507221748 | 89 | 150 | 4.3 | 4.3 | 0.00 | 0.00 | 0.00 | 53 | 1012.6 |
| 20260507221244 | 89 | 180 | 1.7 | 7.8 | 0.00 | 0.00 | 0.00 | 53 | 1012.5 |
| 20260507220740 | 89 | 297 | 2.6 | 5.2 | 0.00 | 0.00 | 0.00 | 53 | 1012.5 |
| 20260507220239 | 90 | 55 | 2.6 | 3.5 | 0.00 | 0.00 | 0.00 | 53 | 1012.6 |
| 20260507215734 | 90 | 63 | 0.9 | 2.6 | 0.00 | 0.00 | 0.00 | 53 | 1012.8 |
| 20260507215232 | 90 | 246 | 0.0 | 2.6 | 0.00 | 0.00 | 0.00 | 53 | 1012.7 |
| 20260507214729 | 89 | 7 | 0.9 | 4.3 | 0.00 | 0.00 | 0.00 | 54 | 1012.3 |
| 20260507214226 | 90 | 250 | 1.7 | 2.6 | 0.00 | 0.00 | 0.00 | 54 | 1012.1 |
| 20260507213721 | 89 | 187 | 1.7 | 3.5 | 0.00 | 0.00 | 0.00 | 54 | 1012.6 |
| 20260507213219 | 88 | 292 | 0.0 | 6.1 | 0.00 | 0.00 | 0.00 | 56 | 1012.6 |
| 20260507212715 | 87 | 5 | 0.0 | 2.6 | 0.00 | 0.00 | 0.00 | 57 | 1012.4 |
| 20260507212212 | 86 | 106 | 0.9 | 4.3 | 0.00 | 0.00 | 0.00 | 59 | 1012.4 |
| 20260507211709 | 86 | 95 | 1.7 | 4.3 | 0.00 | 0.00 | 0.00 | 58 | 1012.0 |
| 20260507211204 | 86 | 98 | 0.0 | 3.5 | 0.00 | 0.00 | 0.00 | 58 | 1011.8 |
| 20260507210702 | 86 | 176 | 0.0 | 2.6 | 0.00 | 0.00 | 0.00 | 58 | 1011.9 |
| 20260507210158 | 85 | 150 | 1.7 | 4.3 | 0.00 | 0.00 | 0.00 | 58 | 1012.4 |
| 20260507205655 | 85 | 140 | 1.7 | 4.3 | 0.00 | 0.00 | 0.00 | 57 | 1012.6 |